EW5847 Weather Reports


time (UTC)temp
C
wind
direction
speed
KPH
gust
KPH
rain 1hr
cm
rain 24hr
cm
rain mn
cm
humidity
%
barometer
mb
20260505011913 12 286 0.0 0.0 0.00 0.00 0.00 62 1006.3
20260505011410 12 286 0.0 0.0 0.00 0.00 0.00 61 1006.2
20260505010905 12 286 0.0 0.0 0.00 0.00 0.00 60 1006.1
20260505010359 13 286 0.0 0.0 0.00 0.00 0.00 59 1006.1
20260505005849 13 286 0.0 0.0 0.00 0.00 0.00 57 1006.0
20260505005347 13 286 0.0 0.0 0.00 0.00 0.00 56 1006.0
20260505004842 13 286 0.0 0.0 0.00 0.00 0.00 56 1005.9
20260505004331 13 286 0.0 0.0 0.00 0.00 0.00 56 1005.9
20260505003829 14 286 0.0 0.0 0.00 0.00 0.00 57 1005.8
20260505003551 14 286 0.0 0.0 0.00 0.00 0.00 59 1005.7
20260505003049 15 286 0.0 0.0 0.00 0.00 0.00 58 1005.6
20260505002544 15 286 0.0 0.0 0.00 0.00 0.00 56 1005.5
20260505001802 15 286 0.0 0.0 0.00 0.00 0.00 55 1005.4
20260505001300 16 286 0.0 0.0 0.00 0.00 0.00 53 1005.4
20260505000749 16 286 0.0 0.0 0.00 0.00 0.00 51 1005.4
20260505000247 16 286 0.0 0.0 0.00 0.00 0.00 49 1005.3
20260504235741 17 286 0.0 0.0 0.00 0.00 0.00 47 1005.2
20260504235230 17 286 0.0 0.0 0.00 0.00 0.00 46 1005.2
20260504234730 18 286 0.0 4.8 0.00 0.00 0.00 45 1005.2
20260504234450 18 286 0.0 6.4 0.00 0.00 0.00 42 1005.1
20260504233717 18 286 0.0 6.4 0.00 0.00 0.00 39 1005.1
20260504233211 19 286 0.0 3.2 0.00 0.00 0.00 40 1005.0
20260504232705 19 286 0.0 4.8 0.00 0.00 0.00 39 1004.9
20260504232158 19 286 0.0 4.8 0.00 0.00 0.00 35 1004.8
20260504231649 20 287 0.0 4.8 0.00 0.00 0.00 35 1004.7
20260504231149 20 286 1.6 6.4 0.00 0.00 0.00 34 1004.6
20260504230641 20 286 1.6 6.4 0.00 0.00 0.00 34 1004.5
20260504230128 20 307 1.6 9.7 0.00 0.00 0.00 33 1004.4
20260504225623 20 257 3.2 11.3 0.00 0.00 0.00 33 1004.4
20260504225120 20 298 3.2 12.9 0.00 0.00 0.00 33 1004.3
20260504224614 20 309 1.6 12.9 0.00 0.00 0.00 33 1004.3
20260504224110 20 286 4.8 16.1 0.00 0.00 0.00 32 1004.3
20260504223603 20 295 6.4 16.1 0.00 0.00 0.00 32 1004.3
20260504223053 20 329 3.2 12.9 0.00 0.00 0.00 34 1004.3
20260504222547 20 274 4.8 17.7 0.00 0.00 0.00 32 1004.2
20260504222317 20 346 6.4 17.7 0.00 0.00 0.00 32 1004.2
20260504221546 21 304 6.4 17.7 0.00 0.00 0.00 31 1004.2
20260504221044 21 329 6.4 16.1 0.00 0.00 0.00 31 1004.1
20260504220543 21 342 6.4 16.1 0.00 0.00 0.00 31 1004.1
20260504220044 20 257 8.0 16.1 0.00 0.00 0.00 32 1004.2
20260504215547 20 259 6.4 16.1 0.00 0.00 0.00 32 1004.2
20260504215045 20 256 6.4 17.7 0.00 0.00 0.00 33 1004.3
20260504214544 20 340 6.4 22.5 0.00 0.00 0.00 32 1004.2
20260504214041 20 281 9.7 22.5 0.00 0.00 0.00 32 1004.1
20260504213541 20 288 8.0 20.9 0.00 0.00 0.00 31 1004.2
20260504213040 21 225 6.4 19.3 0.00 0.00 0.00 32 1004.2
20260504212541 21 288 6.4 33.8 0.00 0.00 0.00 31 1004.1
20260504212039 21 295 6.4 33.8 0.00 0.00 0.00 32 1004.2
20260504211539 21 287 9.7 33.8 0.00 0.00 0.00 31 1004.2
20260504211033 21 268 11.3 33.8 0.00 0.00 0.00 31 1004.2
20260504210521 22 256 11.3 27.4 0.00 0.00 0.00 30 1004.1
20260504210012 22 341 9.7 24.1 0.00 0.00 0.00 30 1004.2
20260504205742 21 318 8.0 30.6 0.00 0.00 0.00 31 1004.0
20260504205011 21 332 9.7 30.6 0.00 0.00 0.00 32 1004.0
20260504204512 21 355 11.3 30.6 0.00 0.00 0.00 30 1004.0
20260504204243 21 336 12.9 35.4 0.00 0.00 0.00 31 1003.9
20260504203512 21 277 14.5 35.4 0.00 0.00 0.00 31 1004.1
20260504203012 21 301 9.7 35.4 0.00 0.00 0.00 31 1003.9
20260504202513 21 347 8.0 32.2 0.00 0.00 0.00 34 1004.0
20260504202014 20 304 6.4 17.7 0.00 0.00 0.00 34 1004.2
20260504201507 20 329 11.3 25.7 0.00 0.00 0.00 34 1004.2
20260504200956 20 331 9.7 25.7 0.00 0.00 0.00 32 1004.2
20260504200455 20 275 8.0 24.1 0.00 0.00 0.00 35 1004.2
20260504195956 20 341 8.0 24.1 0.00 0.00 0.00 33 1004.2
20260504195727 20 329 6.4 20.9 0.00 0.00 0.00 32 1004.2
20260504194956 20 267 8.0 20.9 0.00 0.00 0.00 33 1004.2
20260504194729 20 226 9.7 25.7 0.00 0.00 0.00 35 1004.2
20260504194229 20 340 11.3 25.7 0.00 0.00 0.00 33 1004.2
20260504194114 21 316 9.7 25.7 0.00 0.00 0.00 34 1004.2
20260504192957 21 336 8.0 25.7 0.00 0.00 0.00 33 1004.2
20260504192450 20 300 11.3 29.0 0.00 0.00 0.00 34 1004.2
20260504192211 20 0 11.3 29.0 0.00 0.00 0.00 35 1004.1
20260504191428 20 252 8.0 22.5 0.00 0.00 0.00 36 1004.1
20260504190923 19 323 8.0 22.5 0.00 0.00 0.00 39 1004.3
20260504190411 18 315 8.0 22.5 0.00 0.00 0.00 37 1004.4
20260504185910 18 347 8.0 17.7 0.00 0.00 0.00 39 1004.5
20260504185403 18 329 8.0 32.2 0.00 0.00 0.00 38 1004.7
20260504184851 18 331 8.0 32.2 0.00 0.00 0.00 38 1004.8
20260504184350 18 339 6.4 19.3 0.00 0.00 0.00 36 1004.9
20260504183840 18 332 6.4 14.5 0.00 0.00 0.00 36 1004.8
20260504183340 18 306 6.4 22.5 0.00 0.00 0.00 35 1004.8
20260504182831 18 319 6.4 22.5 0.00 0.00 0.00 35 1004.7
20260504182329 18 355 8.0 22.5 0.00 0.00 0.00 34 1004.7
20260504181835 18 338 8.0 29.0 0.00 0.00 0.00 33 1004.6
20260504181830 18 330 8.0 29.0 0.00 0.00 0.00 34 1004.6
20260504180831 18 254 11.3 29.0 0.00 0.00 0.00 33 1004.7
20260504180329 18 260 11.3 29.0 0.00 0.00 0.00 34 1004.7
20260504175828 18 251 8.0 25.7 0.00 0.00 0.00 33 1004.7
20260504175328 18 355 8.0 20.9 0.00 0.00 0.00 33 1004.8
20260504174828 18 349 8.0 25.7 0.00 0.00 0.00 33 1004.7
20260504174327 18 284 11.3 29.0 0.00 0.00 0.00 33 1004.6
20260504173827 19 226 12.9 29.0 0.00 0.00 0.00 32 1004.6
20260504173600 19 325 12.9 32.2 0.00 0.00 0.00 34 1004.6
20260504172828 20 276 12.9 32.2 0.00 0.00 0.00 33 1004.6
20260504172327 20 325 12.9 29.0 0.00 0.00 0.00 32 1004.5
20260504171829 20 306 12.9 32.2 0.00 0.00 0.00 31 1004.5
20260504171325 20 261 12.9 38.6 0.00 0.00 0.00 31 1004.5
20260504170827 20 261 14.5 38.6 0.00 0.00 0.00 35 1004.4
20260504170555 19 295 16.1 41.8 0.00 0.00 0.00 33 1004.3
20260504160207 18 14 11.3 30.6 0.00 0.00 0.00 35 1004.8
20260504151105 17 217 6.4 19.3 0.00 0.00 0.00 44 1005.6
20260504150600 16 261 8.0 22.5 0.00 0.00 0.00 45 1005.6
20260504140954 14 290 8.0 17.7 0.00 0.00 0.00 48 1006.6
20260504140452 13 305 6.4 17.7 0.00 0.00 0.00 48 1006.8
20260504130342 10 279 3.2 16.1 0.00 0.00 0.00 61 1007.3
20260504120228 7 276 3.2 11.3 0.00 0.00 0.00 69 1008.1
20260504110612 4 294 1.6 8.0 0.00 0.00 0.00 75 1008.1
20260504100501 2 311 0.0 0.0 0.00 0.00 0.00 85 1008.0
20260504081858 0 311 0.0 0.0 0.00 0.00 0.00 85 1008.1
20260504081353 0 311 0.0 0.0 0.00 0.00 0.00 85 1008.1
20260504080852 0 311 0.0 0.0 0.00 0.00 0.00 84 1008.1
20260504080346 0 311 0.0 0.0 0.00 0.00 0.00 84 1008.1
20260504070230 0 296 0.0 4.8 0.00 0.00 0.00 81 1008.0
20260504060121 0 284 0.0 4.8 0.00 0.00 0.00 80 1007.7
20260504050747 0 281 0.0 4.8 0.00 0.00 0.00 79 1007.7
20260504050010 0 281 0.0 3.2 0.00 0.00 0.00 79 1007.7
20260504045500 0 281 0.0 4.8 0.00 0.00 0.00 79 1007.7
20260504044957 1 281 0.0 6.4 0.00 0.00 0.00 79 1007.7
20260504044447 1 281 0.0 6.4 0.00 0.00 0.00 79 1007.7
20260504043946 1 290 0.0 4.8 0.00 0.00 0.00 78 1007.6
20260504043439 1 290 0.0 4.8 0.00 0.00 0.00 78 1007.6
20260504043200 1 320 0.0 4.8 0.00 0.00 0.00 78 1007.6
20260504042427 1 320 0.0 4.8 0.00 0.00 0.00 78 1007.6
20260504041924 1 320 0.0 4.8 0.00 0.00 0.00 77 1007.6
20260504041423 1 323 0.0 0.0 0.00 0.00 0.00 77 1007.5
20260504040924 1 323 0.0 3.2 0.00 0.00 0.00 77 1007.5
20260504040421 1 323 0.0 3.2 0.00 0.00 0.00 76 1007.4
20260504035920 1 319 0.0 4.8 0.00 0.00 0.00 76 1007.5
20260504035422 1 319 0.0 4.8 0.00 0.00 0.00 76 1007.5
20260504034918 1 319 0.0 3.2 0.00 0.00 0.00 76 1007.4
20260504034420 1 319 0.0 0.0 0.00 0.00 0.00 76 1007.3
20260504033917 1 319 0.0 0.0 0.00 0.00 0.00 75 1007.3
20260504033415 2 319 0.0 0.0 0.00 0.00 0.00 75 1007.3
20260504033144 2 319 0.0 0.0 0.00 0.00 0.00 74 1007.2
20260504032414 2 319 0.0 0.0 0.00 0.00 0.00 74 1007.3
20260504031912 2 319 0.0 0.0 0.00 0.00 0.00 74 1007.3
20260504031410 2 319 0.0 0.0 0.00 0.00 0.00 75 1007.3
20260504030912 2 319 0.0 0.0 0.00 0.00 0.00 74 1007.2
20260504030409 2 319 0.0 0.0 0.00 0.00 0.00 73 1007.2
20260504025909 2 319 0.0 3.2 0.00 0.00 0.00 73 1007.2
20260504025408 2 319 0.0 3.2 0.00 0.00 0.00 73 1007.2
20260504024857 2 319 0.0 1.6 0.00 0.00 0.00 73 1007.2
20260504024355 2 319 0.0 3.2 0.00 0.00 0.00 72 1007.3
20260504023845 3 319 0.0 3.2 0.00 0.00 0.00 71 1007.2
20260504023339 3 319 0.0 1.6 0.00 0.00 0.00 70 1007.2
20260504023108 3 319 0.0 1.6 0.00 0.03 0.00 69 1007.1
20260504022332 3 319 0.0 1.6 0.00 0.03 0.00 68 1007.1
20260504021825 3 319 0.0 1.6 0.00 0.03 0.00 68 1007.2
20260504021316 3 319 0.0 0.0 0.00 0.03 0.00 68 1007.2
20260504020813 3 319 0.0 0.0 0.00 0.05 0.00 68 1007.2
20260504020301 4 319 0.0 1.6 0.00 0.05 0.00 66 1007.2
20260504015755 4 319 0.0 1.6 0.00 0.05 0.00 65 1007.1
20260504015254 4 319 0.0 3.2 0.00 0.05 0.00 64 1007.2
20260504014744 5 319 0.0 3.2 0.00 0.05 0.00 62 1007.2
20260504014242 5 319 0.0 3.2 0.00 0.05 0.00 62 1007.1
20260504013735 5 318 0.0 1.6 0.00 0.05 0.00 61 1007.1
20260504013229 5 318 0.0 0.0 0.00 0.05 0.00 62 1007.1
20260504012724 5 318 0.0 0.0 0.00 0.05 0.00 59 1007.1